Location: Bouchavesnes-Bergen
(49.9859°N, 2.9203°E)
Time: 09:32:51
(UTC+00:00)

MOS 1 Rocket - Pass Details

Date: 09 March 2021
Orbit: 615 x 829 km, 97.4° (Epoch: 12 April)

Event Time Altitude Azimuth Distance (km) Brightness Sun altitude
Rises 04:55:01 0° 170° (S) 2,916 6.5 -13.6°
Reaches altitude 10° 04:57:10 10° 172° (S) 2,033 5.7 -13.3°
Maximum altitude 05:01:35 76° 258° (WSW) 692 3.1 -12.6°
Drops below altitude 10° 05:06:18 10° 344° (NNW) 2,163 5.8 -11.8°
Sets 05:08:39 0° 346° (NNW) 3,121 6.6 -11.4°
